User: anonymous   Login
Location: Newark
(34.1333°N, 7.9667°W)
Time: 21:48:56
(UTC+00:00)
Language:

FENGYUN 1C DEB - Orbit

View from above orbital plane
View from above orbital plane
View from above satellite
View from above satellite

Ground track
Ground track

The orbit data is extracted from the following two-line orbital elements,

1 38828U 99025EVU 24051.60887491  .00174974  00000-0  83717-2 0  9999
2 38828  99.5163 340.0241 0104639 284.7020  74.2625 15.13474881680163
Epoch (UTC): 20 February 2024 14:36:46
Eccentricity: 0.0104639
inclination: 99.5163°
perigee height: 453 km
apogee height: 598 km
right ascension of ascending node: 340.0241°
argument of perigee: 284.7020°
revolutions per day: 15.13474881
mean anomaly at epoch: 74.2625°
orbit number at epoch: 68016

The dashed part of the orbit path shows where the satellite is in the earth's shadow,  

DLR